Fort Bridger AP, Fort Bridger, WY

2:19 AM MDT on July 25, 2017 (GMT -0600)
Fort Bridger

Weather History for KFBR - May, 2014

Change the Weather History Date:

Saturday, May 3, 2014

  Actual Average (KEVW) Record (KEVW)
Temperature  
Mean Temperature 62 °F -  
Max Temperature 75 °F 52 °F 75 °F (2000)
Min Temperature 49 °F 31 °F 25 °F (2008)
Degree Days  
Heating Degree Days 3    
Growing Degree Days 12 (Base 50)    
Moisture  
Dew Point 19 °F    
Average Humidity 20    
Maximum Humidity 35    
Minimum Humidity 11    
Precipitation  
Precipitation 0.00 in - - ()
Sea Level Pressure  
Sea Level Pressure 30.06 in    
Wind  
Wind Speed 16 mph (WSW)    
Max Wind Speed 31 mph    
Max Gust Speed 41 mph    
Visibility 10 miles    
Events      
Averages and records for this station are not official NWS values.
T = Trace of Precipitation, MM = Missing Value Source: NWS Daily Summary

Daily Weather History Graph

Daily Weather History Graph

Search for Another Location

Airport or City:

Trip Planner

Search our weather history database for the weather conditions in past years. The results will help you decide how hot, cold, wet, or windy it might be!

Date:

Astronomy

May. 03, 2014 Rise Set
Actual Time 6:16 AM MDT 8:21 PM MDT
Civil Twilight 5:45 AM MDT 8:51 PM MDT
Nautical Twilight 5:08 AM MDT 9:29 PM MDT
Astronomical Twilight 4:28 AM MDT 10:09 PM MDT
Moon 9:48 AM MDT (5/3) No Moon Set
Length of Visible Light 15h 05m
Length of Day
14h 05m
Waxing Crescent, 20% of the Moon is Illuminated
May 3
Waxing Crescent
May 6
First Quarter
May 14
Full
May 21
Last Quarter
May 28
New

Hourly Weather History & Observations

Time (MDT) Temp. Dew Point Humidity Pressure Visibility Wind Dir Wind Speed Gust Speed Precip Events Conditions
12:15 AM 52.5 °F 20.3 °F 28% 30.16 in 10.0 mi WSW 16.1 mph 24.2 mph N/A   Clear
12:35 AM 54.5 °F 20.1 °F 26% 30.16 in 10.0 mi SW 16.1 mph - N/A   Clear
12:55 AM 55.8 °F 19.8 °F 25% 30.16 in 10.0 mi SW 16.1 mph - N/A   Clear
1:15 AM 54.5 °F 20.1 °F 26% 30.16 in 10.0 mi SW 12.7 mph 17.3 mph N/A   Clear
1:35 AM 53.2 °F 20.1 °F 27% 30.14 in 10.0 mi SW 11.5 mph - N/A   Clear
1:55 AM 55.8 °F 19.8 °F 25% 30.14 in 10.0 mi SW 15.0 mph - N/A   Clear
2:15 AM 55.6 °F 20.3 °F 25% 30.14 in 10.0 mi SW 11.5 mph 17.3 mph N/A   Clear
2:35 AM 52.5 °F 20.5 °F 29% 30.13 in 10.0 mi WSW 8.1 mph - N/A   Clear
2:55 AM 50.5 °F 20.8 °F 31% 30.12 in 10.0 mi WSW 10.4 mph - N/A   Clear
3:15 AM 51.8 °F 21.2 °F 30% 30.12 in 10.0 mi WSW 9.2 mph - N/A   Clear
3:35 AM 52.3 °F 20.5 °F 29% 30.12 in 10.0 mi WSW 12.7 mph 18.4 mph N/A   Clear
3:55 AM 52.3 °F 20.3 °F 28% 30.12 in 10.0 mi WSW 12.7 mph - N/A   Clear
4:15 AM 54.7 °F 19.9 °F 26% 30.12 in 10.0 mi WSW 12.7 mph - N/A   Clear
4:35 AM 55.8 °F 18.7 °F 23% 30.11 in 10.0 mi WSW 15.0 mph 20.7 mph N/A   Clear
4:55 AM 55.8 °F 18.3 °F 23% 30.11 in 10.0 mi SW 12.7 mph - N/A   Clear
5:15 AM 54.5 °F 18.3 °F 24% 30.10 in 10.0 mi WSW 12.7 mph - N/A   Clear
5:35 AM 54.3 °F 18.7 °F 25% 30.10 in 10.0 mi WSW 11.5 mph 17.3 mph N/A   Clear
5:55 AM 49.6 °F 19.4 °F 30% 30.10 in 10.0 mi WSW 10.4 mph - N/A   Clear
6:15 AM 50.4 °F 19.4 °F 30% 30.10 in 10.0 mi WSW 10.4 mph - N/A   Clear
6:35 AM 51.8 °F 19.2 °F 28% 30.10 in 10.0 mi WSW 10.4 mph - N/A   Clear
6:55 AM 54.5 °F 18.7 °F 25% 30.09 in 10.0 mi WSW 10.4 mph - N/A   Clear
7:15 AM 57.9 °F 19.2 °F 22% 30.10 in 10.0 mi SW 13.8 mph - N/A   Clear
7:35 AM 59.9 °F 19.4 °F 21% 30.10 in 10.0 mi SW 15.0 mph 21.9 mph N/A   Clear
7:55 AM 59.7 °F 19.8 °F 21% 30.10 in 10.0 mi SW 15.0 mph - N/A   Clear
8:15 AM 62.4 °F 19.0 °F 19% 30.10 in 10.0 mi SW 17.3 mph 21.9 mph N/A   Clear
8:55 AM 64.2 °F 20.5 °F 19% 30.10 in 10.0 mi WSW 13.8 mph 18.4 mph N/A   Clear
9:15 AM 65.1 °F 23.5 °F 21% 30.09 in 10.0 mi West 13.8 mph 17.3 mph N/A   Clear
9:35 AM 65.7 °F 18.0 °F 16% 30.10 in 10.0 mi WSW 19.6 mph 24.2 mph N/A   Clear
9:55 AM 67.8 °F 18.0 °F 15% 30.09 in 10.0 mi WSW 20.7 mph 26.5 mph N/A   Clear
10:15 AM 68.5 °F 18.1 °F 15% 30.09 in 10.0 mi WSW 20.7 mph 27.6 mph N/A   Clear
10:35 AM 69.8 °F 17.8 °F 14% 30.09 in 10.0 mi West 19.6 mph 26.5 mph N/A   Clear
11:15 AM 71.1 °F 17.4 °F 13% 30.09 in 10.0 mi WSW 20.7 mph 31.1 mph N/A   Clear
11:55 AM 72.9 °F 16.9 °F 12% 30.08 in 10.0 mi WSW 21.9 mph 29.9 mph N/A   Clear
12:15 PM 73.4 °F 17.1 °F 12% 30.08 in 10.0 mi West 23.0 mph 33.4 mph N/A   Clear
12:35 PM 73.6 °F 17.8 °F 12% 30.07 in 10.0 mi West 26.5 mph 33.4 mph N/A   Clear
12:55 PM 74.3 °F 17.1 °F 11% 30.06 in 10.0 mi WSW 25.3 mph 38.0 mph N/A   Clear
1:15 PM 75.2 °F 18.0 °F 12% 30.06 in 10.0 mi West 19.6 mph 35.7 mph N/A   Clear
1:35 PM 75.0 °F 19.0 °F 12% 30.04 in 10.0 mi WSW 19.6 mph 28.8 mph N/A   Clear
2:15 PM 72.9 °F 18.7 °F 13% 30.04 in 10.0 mi WSW 21.9 mph 29.9 mph N/A   Clear
2:35 PM 75.6 °F 18.5 °F 12% 30.04 in 10.0 mi West 31.1 mph 39.1 mph N/A   Clear
2:55 PM 75.7 °F 18.1 °F 11% 30.04 in 10.0 mi West 27.6 mph 41.4 mph N/A   Clear
3:20 PM 75.2 °F 17.4 °F 11% 30.04 in 10.0 mi West 29.9 mph 39.1 mph N/A   Clear
3:40 PM 74.7 °F 19.2 °F 12% 30.03 in 10.0 mi West 24.2 mph 36.8 mph N/A   Clear
3:55 PM 74.5 °F 19.0 °F 12% 30.03 in 10.0 mi West 24.2 mph 36.8 mph N/A   Clear
4:15 PM 74.5 °F 19.6 °F 13% 30.02 in 10.0 mi West 29.9 mph 40.3 mph N/A   Clear
4:35 PM 74.1 °F 19.6 °F 13% 30.01 in 10.0 mi WNW 24.2 mph 38.0 mph N/A   Clear
4:55 PM 74.8 °F 19.0 °F 12% 30.01 in 10.0 mi West 28.8 mph 39.1 mph N/A   Clear
5:15 PM 73.9 °F 18.7 °F 12% 30.01 in 10.0 mi West 24.2 mph 36.8 mph N/A   Scattered Clouds
5:35 PM 73.6 °F 18.0 °F 12% 30.01 in 10.0 mi West 26.5 mph 35.7 mph N/A   Clear
5:55 PM 73.8 °F 18.1 °F 12% 30.00 in 10.0 mi West 27.6 mph 39.1 mph N/A   Clear
6:15 PM 71.6 °F 18.0 °F 13% 30.00 in 10.0 mi West 18.4 mph 27.6 mph N/A   Clear
6:35 PM 69.4 °F 17.8 °F 14% 30.00 in 10.0 mi WSW 21.9 mph - N/A   Scattered Clouds
6:55 PM 71.1 °F 19.8 °F 14% 30.00 in 10.0 mi WNW 18.4 mph 24.2 mph N/A   Scattered Clouds
7:15 PM 68.0 °F 20.1 °F 16% 30.00 in 10.0 mi WNW 16.1 mph - N/A   Scattered Clouds
7:35 PM 66.2 °F 19.4 °F 17% 30.00 in 10.0 mi WNW 11.5 mph 20.7 mph N/A   Clear
7:55 PM 64.0 °F 19.0 °F 18% 30.00 in 10.0 mi WNW 8.1 mph - N/A   Clear
8:15 PM 62.4 °F 19.4 °F 19% 30.00 in 10.0 mi West 6.9 mph - N/A   Scattered Clouds
8:35 PM 61.7 °F 19.2 °F 19% 30.00 in 10.0 mi West 6.9 mph - N/A   Scattered Clouds
8:55 PM 59.9 °F 19.4 °F 21% 30.00 in 10.0 mi WSW 6.9 mph - N/A   Scattered Clouds
9:15 PM 59.5 °F 19.0 °F 21% 30.00 in 10.0 mi West 5.8 mph - N/A   Scattered Clouds
9:35 PM 59.4 °F 18.9 °F 21% 30.00 in 10.0 mi WSW 5.8 mph - N/A   Clear
9:55 PM 54.7 °F 19.4 °F 25% 30.00 in 10.0 mi SW 9.2 mph - N/A   Clear
10:15 PM 54.1 °F 21.0 °F 27% 30.00 in 10.0 mi SW 11.5 mph - N/A   Clear
10:35 PM 55.6 °F 21.0 °F 26% 30.00 in 10.0 mi SW 11.5 mph - N/A   Clear
10:55 PM 52.2 °F 21.4 °F 30% 30.00 in 10.0 mi SSW 10.4 mph - N/A   Clear
11:15 PM 51.8 °F 22.1 °F 31% 30.00 in 10.0 mi South 10.4 mph - N/A   Clear
11:35 PM 49.6 °F 22.8 °F 35% 29.99 in 10.0 mi SSW 9.2 mph - N/A   Clear
11:55 PM 49.5 °F 21.7 °F 34% 29.98 in 10.0 mi West 5.8 mph - N/A   Clear